QPF
0.00 0.00 0.00 0.00 0.00 0.00 0.00 0.00 0.00 0.00 0.00 0.00 0.00 0.00 0.00 0.00 0.00 0.00 0.00 0.00 0.00 0.00 0.00 0.00 0.00 0.00 0.00 0.00 0.00 0.00 0.00 0.00 0.00 0.00 0.00 0.00 0.01 0.14 0.18 0.05 0.00 0.00 0.00
0.00 0.00 0.00 0.00 0.00 0.00 0.00 0.00 0.00 0.00 0.00 0.00 0.00 0.00 0.00 0.00 0.00 0.00 0.00 0.00 0.00 0.00 0.00 0.00 0.00 0.00 0.00 0.00 0.00 0.00 0.00 0.00 0.00 0.00 0.00 0.00 0.00 0.01 0.17 0.32 0.04 0.00 0.00
0.00 0.00 0.00 0.00 0.00 0.00 0.00 0.00 0.00 0.00 0.00 0.00 0.00 0.00 0.00 0.00 0.00 0.00 0.00 0.00 0.00 0.00 0.00 0.00 0.00 0.00 0.00 0.00 0.00 0.00 0.00 0.00 0.00 0.00 0.00 0.00 0.00 0.00 0.04 0.29 0.17 0.01 0.00
0.00 0.01 0.02 0.01 0.01 0.00 0.00 0.00 0.00 0.00 0.00 0.00 0.00 0.00 0.00 0.00 0.00 0.00 0.00 0.00 0.00 0.00 0.00 0.00 0.00 0.00 0.00 0.00 0.00 0.00 0.00 0.00 0.00 0.00 0.00 0.00 0.00 0.00 0.00 0.06 0.50 0.11 0.02
0.00 0.00 0.00 0.01 0.02 0.03 0.04 0.02 0.01 0.01 0.01 0.00 0.00 0.00 0.00 0.00 0.00 0.00 0.00 0.00 0.00 0.00 0.00 0.00 0.00 0.00 0.00 0.00 0.00 0.00 0.00 0.00 0.00 0.00 0.00 0.00 0.00 0.00 0.00 0.01 0.06 0.12 0.02
0.00 0.00 0.00 0.00 0.00 0.01 0.01 0.03 0.05 0.04 0.02 0.00 0.00 0.00 0.00 0.00 0.00 0.00 0.00 0.00 0.00 0.00 0.00 0.00 0.00 0.00 0.00 0.00 0.00 0.00 0.00 0.00 0.00 0.00 0.00 0.00 0.00 0.00 0.00 0.00 0.01 0.08 0.06
0.00 0.00 0.00 0.00 0.00 0.00 0.00 0.00 0.01 0.02 0.03 0.02 0.03 0.01 0.00 0.00 0.01 0.00 0.00 0.00 0.00 0.00 0.00 0.00 0.00 0.00 0.00 0.00 0.00 0.00 0.00 0.00 0.00 0.00 0.00 0.00 0.00 0.00 0.00 0.00 0.01 0.04 0.06
0.00 0.00 0.00 0.00 0.00 0.00 0.00 0.00 0.00 0.00 0.00 0.00 0.01 0.01 0.01 0.00 0.00 0.00 0.00 0.00 0.00 0.00 0.00 0.00 0.00 0.00 0.00 0.00 0.00 0.00 0.00 0.00 0.00 0.00 0.00 0.00 0.00 0.00 0.00 0.00 0.00 0.02 0.09
0.00 0.00 0.00 0.00 0.00 0.00 0.00 0.00 0.00 0.00 0.00 0.00 0.00 0.02 0.04 0.04 0.01 0.00 0.00 0.00 0.00 0.00 0.00 0.00 0.00 0.00 0.00 0.00 0.00 0.00 0.00 0.00 0.00 0.00 0.00 0.00 0.00 0.00 0.00 0.00 0.00 0.01 0.04
0.00 0.00 0.00 0.00 0.00 0.00 0.00 0.00 0.00 0.00 0.00 0.00 0.00 0.00 0.01 0.01 0.01 0.01 0.00 0.00 0.00 0.00 0.00 0.00 0.00 0.00 0.00 0.00 0.00 0.00 0.00 0.00 0.00 0.00 0.00 0.00 0.00 0.00 0.00 0.00 0.00 0.00 0.01
0.00 0.00 0.00 0.00 0.00 0.00 0.00 0.00 0.00 0.00 0.00 0.00 0.00 0.00 0.00 0.00 0.00 0.01 0.00 0.00 0.00 0.00 0.00 0.00 0.00 0.00 0.00 0.00 0.00 0.00 0.00 0.00 0.00 0.00 0.00 0.00 0.00 0.00 0.00 0.00 0.00 0.00 0.00
0.00 0.00 0.00 0.00 0.00 0.00 0.00 0.00 0.00 0.00 0.00 0.00 0.00 0.01 0.01 0.01 0.00 0.01 0.01 0.00 0.00 0.00 0.00 0.00 0.00 0.00 0.00 0.00 0.00 0.00 0.00 0.00 0.00 0.00 0.00 0.00 0.00 0.00 0.00 0.00 0.00 0.00 0.00
0.00 0.00 0.00 0.00 0.00 0.00 0.00 0.00 0.00 0.00 0.00 0.00 0.00 0.00 0.01 0.02 0.03 0.03 0.03 0.02 0.01 0.00 0.00 0.00 0.00 0.00 0.00 0.00 0.00 0.00 0.00 0.00 0.00 0.00 0.00 0.00 0.00 0.00 0.00 0.00 0.00 0.00 0.00
0.00 0.00 0.00 0.00 0.00 0.00 0.00 0.00 0.00 0.00 0.00 0.00 0.00 0.00 0.00 0.01 0.02 0.04 0.05 0.06 0.04 0.01 0.00 0.00 0.00 0.00 0.00 0.00 0.00 0.00 0.00 0.00 0.00 0.00 0.00 0.00 0.00 0.00 0.00 0.00 0.00 0.00 0.00
0.00 0.00 0.00 0.00 0.00 0.00 0.00 0.00 0.00 0.00 0.00 0.00 0.00 0.00 0.00 0.01 0.01 0.02 0.02 0.02 0.04 0.04 0.01 0.00 0.00 0.00 0.00 0.00 0.00 0.00 0.00 0.00 0.00 0.00 0.00 0.00 0.00 0.00 0.00 0.00 0.00 0.00 0.00
0.00 0.00 0.00 0.00 0.00 0.00 0.00 0.00 0.00 0.00 0.00 0.00 0.00 0.00 0.00 0.00 0.00 0.01 0.01 0.02 0.01 0.04 0.03 0.00 0.00 0.00 0.00 0.00 0.00 0.00 0.00 0.00 0.00 0.00 0.00 0.00 0.00 0.00 0.00 0.00 0.00 0.00 0.00
0.00 0.00 0.00 0.00 0.00 0.00 0.00 0.00 0.00 0.00 0.00 0.00 0.00 0.00 0.00 0.00 0.00 0.00 0.00 0.01 0.01 0.01 0.01 0.00 0.00 0.00 0.00 0.00 0.00 0.00 0.00 0.00 0.00 0.00 0.00 0.00 0.00 0.00 0.00 0.00 0.00 0.00 0.00
0.00 0.00 0.00 0.00 0.00 0.00 0.00 0.00 0.00 0.00 0.00 0.00 0.00 0.00 0.00 0.00 0.00 0.00 0.00 0.00 0.00 0.00 0.00 0.00 0.00 0.00 0.00 0.01 0.00 0.00 0.00 0.00 0.00 0.00 0.00 0.00 0.00 0.00 0.00 0.00 0.00 0.00 0.00
0.00 0.00 0.00 0.00 0.00 0.00 0.00 0.00 0.00 0.00 0.00 0.00 0.00 0.00 0.00 0.00 0.00 0.00 0.00 0.00 0.00 0.00 0.00 0.00 0.00 0.05 0.04 0.01 0.03 0.00 0.00 0.00 0.00 0.00 0.00 0.00 0.00 0.00 0.00 0.00 0.00 0.00 0.00
0.00 0.00 0.00 0.00 0.00 0.00 0.00 0.00 0.00 0.00 0.00 0.00 0.00 0.00 0.00 0.00 0.00 0.00 0.00 0.00 0.01 0.01 0.00 0.00 0.01 0.07 0.14 0.06 0.05 0.04 0.00 0.00 0.00 0.00 0.00 0.00 0.00 0.00 0.00 0.00 0.00 0.00 0.00
0.00 0.00 0.00 0.00 0.00 0.00 0.00 0.00 0.00 0.00 0.00 0.00 0.00 0.00 0.00 0.00 0.01 0.00 0.00 0.00 0.01 0.01 0.01 0.02 0.04 0.12 0.18 0.15 0.08 0.08 0.01 0.00 0.00 0.00 0.00 0.00 0.00 0.00 0.00 0.00 0.00 0.00 0.00
0.00 0.00 0.00 0.00 0.00 0.00 0.00 0.00 0.01 0.00 0.00 0.00 0.00 0.01 0.00 0.00 0.01 0.01 0.01 0.01 0.03 0.04 0.05 0.09 0.08 0.11 0.13 0.19 0.09 0.05 0.01 0.00 0.00 0.00 0.00 0.00 0.00 0.00 0.00 0.00 0.00 0.00 0.00
0.00 0.00 0.00 0.00 0.00 0.00 0.00 0.00 0.00 0.00 0.00 0.00 0.02 0.03 0.01 0.01 0.00 0.00 0.00 0.01 0.02 0.03 0.10 0.22 0.21 0.11 0.05 0.17 0.12 0.04 0.00 0.00 0.00 0.00 0.00 0.00 0.00 0.00 0.00 0.00 0.00 0.00 0.00
0.00 0.00 0.00 0.00 0.00 0.00 0.00 0.00 0.00 0.00 0.00 0.01 0.02 0.01 0.01 0.01 0.03 0.06 0.03 0.03 0.02 0.04 0.18 0.29 0.31 0.20 0.05 0.10 0.08 0.01 0.00 0.00 0.00 0.00 0.00 0.00 0.00 0.00 0.00 0.00 0.00 0.00 0.00
0.00 0.00 0.00 0.00 0.00 0.00 0.00 0.00 0.00 0.00 0.00 0.01 0.01 0.01 0.01 0.00 0.05 0.08 0.03 0.02 0.06 0.14 0.38 0.38 0.31 0.25 0.09 0.05 0.02 0.00 0.00 0.00 0.00 0.00 0.00 0.00 0.00 0.00 0.00 0.00 0.00 0.00 0.00
0.00 0.00 0.00 0.00 0.00 0.00 0.00 0.00 0.01 0.03 0.02 0.03 0.03 0.01 0.00 0.00 0.02 0.01 0.00 0.04 0.12 0.27 0.42 0.30 0.17 0.11 0.02 0.00 0.00 0.00 0.00 0.00 0.00 0.00 0.00 0.00 0.00 0.00 0.00 0.00 0.00 0.00 0.00
MSLP
1020.52 1020.57 1020.28 1020.09 1020.04 1020.12 1020.20 1020.28 1020.21 1020.20 1020.21 1020.05 1019.94 1019.97 1020.11 1019.96 1020.18 1020.34 1020.36 1020.10 1020.15 1020.23 1020.17 1020.19 1020.33 1020.42 1020.47 1020.55 1020.56 1020.58 1020.55 1020.45 1020.37 1020.25 1020.05 1019.93 1019.73 1019.58 1019.57 1019.52 1019.71 1019.78 1020.11
1020.13 1020.42 1020.28 1020.01 1019.95 1019.86 1019.77 1019.83 1019.80 1019.85 1019.81 1019.84 1019.98 1020.00 1019.81 1019.76 1019.72 1019.98 1020.13 1020.16 1019.99 1020.04 1020.08 1020.06 1020.15 1020.27 1020.33 1020.43 1020.57 1020.62 1020.56 1020.50 1020.41 1020.22 1020.09 1020.01 1019.86 1019.69 1019.47 1019.28 1019.41 1019.57 1019.82
1019.89 1020.05 1020.08 1020.01 1019.72 1019.55 1019.48 1019.60 1019.53 1019.56 1019.64 1019.54 1019.54 1019.54 1019.78 1019.69 1019.58 1019.40 1019.59 1019.72 1019.83 1019.79 1019.87 1019.86 1019.94 1020.07 1020.15 1020.21 1020.32 1020.44 1020.51 1020.54 1020.47 1020.33 1020.25 1020.14 1019.98 1019.80 1019.62 1019.63 1019.29 1019.54 1019.54
1019.39 1019.41 1019.44 1019.19 1019.07 1019.39 1019.62 1019.76 1019.83 1019.63 1019.43 1019.40 1019.26 1018.85 1018.80 1019.20 1019.42 1019.52 1019.33 1019.50 1019.53 1019.64 1019.66 1019.65 1019.72 1019.82 1019.93 1019.98 1020.04 1020.08 1020.22 1020.38 1020.36 1020.28 1020.24 1020.24 1020.04 1019.88 1019.81 1019.48 1019.14 1018.71 1019.52
1019.23 1019.34 1019.33 1019.21 1018.96 1018.81 1018.87 1019.12 1019.36 1019.64 1019.55 1019.22 1019.07 1018.93 1018.90 1018.77 1018.90 1018.81 1019.16 1019.17 1019.40 1019.47 1019.24 1019.20 1019.30 1019.46 1019.67 1019.75 1019.76 1019.80 1019.82 1019.95 1020.07 1020.18 1020.15 1020.12 1019.99 1019.87 1019.77 1019.58 1019.44 1019.45 1019.35
1019.89 1019.86 1019.76 1019.49 1019.10 1019.16 1019.07 1018.88 1018.78 1019.00 1019.04 1019.01 1018.87 1018.73 1018.69 1018.63 1018.54 1018.67 1018.49 1018.51 1018.70 1018.94 1019.11 1019.34 1019.13 1019.08 1019.07 1019.36 1019.49 1019.49 1019.52 1019.53 1019.64 1019.77 1019.92 1019.95 1019.87 1019.84 1019.77 1019.72 1019.54 1019.32 1019.28
1020.57 1020.57 1020.56 1020.46 1020.31 1020.08 1019.85 1019.53 1018.95 1018.75 1018.60 1018.29 1018.95 1018.25 1018.34 1018.26 1018.17 1017.85 1017.79 1018.15 1018.25 1018.15 1018.48 1018.70 1019.08 1019.20 1019.02 1018.91 1019.14 1019.17 1019.20 1019.23 1019.31 1019.46 1019.61 1019.75 1019.82 1019.84 1019.80 1019.76 1019.64 1019.49 1019.28
1021.16 1020.97 1021.08 1020.98 1020.78 1020.51 1020.20 1019.95 1019.63 1019.16 1018.66 1018.30 1018.51 1018.61 1018.36 1018.06 1017.74 1017.33 1017.02 1017.34 1017.52 1017.51 1017.70 1017.89 1018.27 1018.60 1018.78 1018.89 1018.78 1018.80 1018.81 1018.89 1018.98 1019.13 1019.35 1019.52 1019.61 1019.69 1019.65 1019.60 1019.57 1019.43 1019.35
1021.54 1021.40 1021.23 1021.11 1020.98 1020.79 1020.56 1020.27 1020.01 1019.78 1019.44 1018.68 1018.51 1018.49 1018.09 1017.70 1017.45 1016.89 1016.76 1016.41 1016.71 1017.12 1017.15 1017.19 1017.41 1017.66 1018.03 1018.31 1018.38 1018.49 1018.45 1018.63 1018.68 1018.78 1018.97 1019.16 1019.24 1019.43 1019.42 1019.41 1019.37 1019.31 1019.28
1021.68 1021.46 1021.30 1021.17 1021.03 1020.88 1020.76 1020.46 1020.08 1019.99 1019.80 1019.43 1018.87 1018.38 1018.02 1017.70 1017.05 1016.83 1016.55 1016.44 1016.53 1016.71 1016.81 1016.84 1016.88 1017.00 1017.13 1017.48 1017.75 1017.90 1017.91 1018.09 1018.36 1018.46 1018.54 1018.69 1018.84 1019.04 1019.24 1019.22 1019.19 1019.16 1019.06
1021.74 1021.56 1021.36 1021.24 1021.10 1020.95 1020.79 1020.51 1020.18 1020.04 1019.76 1019.46 1019.04 1018.88 1018.48 1017.79 1017.13 1016.87 1016.56 1016.54 1016.39 1016.14 1016.18 1016.18 1016.29 1016.34 1016.43 1016.73 1017.07 1017.13 1017.17 1017.35 1017.77 1018.08 1018.17 1018.31 1018.48 1018.68 1018.94 1019.01 1019.00 1018.92 1018.83
1021.63 1021.45 1021.25 1021.15 1020.97 1020.85 1020.66 1020.39 1020.17 1019.94 1019.71 1019.45 1019.03 1018.70 1018.50 1018.24 1017.45 1016.95 1016.48 1016.33 1015.93 1015.62 1015.38 1015.31 1015.63 1015.82 1015.73 1015.96 1016.20 1016.31 1016.47 1016.78 1017.05 1017.37 1017.69 1017.86 1018.10 1018.32 1018.61 1018.79 1018.78 1018.62 1018.62
1021.53 1021.25 1021.11 1020.93 1020.74 1020.46 1020.21 1020.04 1020.00 1019.80 1019.57 1019.40 1019.09 1018.84 1018.43 1017.99 1017.88 1017.42 1016.97 1016.43 1015.78 1015.23 1015.04 1014.85 1014.98 1015.18 1015.22 1015.38 1015.48 1015.58 1015.79 1015.99 1016.47 1016.82 1017.10 1017.36 1017.61 1017.99 1018.28 1018.49 1018.57 1018.42 1018.27
1021.38 1021.06 1020.87 1020.62 1020.32 1020.07 1019.82 1019.62 1019.64 1019.49 1019.30 1019.11 1018.90 1018.75 1018.48 1018.06 1017.59 1017.28 1016.92 1016.64 1016.10 1015.61 1014.90 1014.35 1014.26 1014.45 1014.66 1014.88 1014.88 1014.95 1015.19 1015.39 1015.63 1016.14 1016.49 1016.82 1017.13 1017.52 1017.92 1018.21 1018.41 1018.35 1018.27
1020.97 1020.71 1020.62 1020.45 1020.03 1019.76 1019.55 1019.40 1019.31 1019.13 1018.94 1018.71 1018.38 1018.28 1018.22 1017.95 1017.51 1017.18 1017.02 1016.41 1016.30 1015.86 1015.02 1014.46 1014.46 1013.96 1013.97 1014.26 1014.26 1014.51 1014.55 1014.71 1015.00 1015.40 1015.88 1016.28 1016.59 1017.01 1017.45 1017.86 1018.07 1018.17 1018.18
1020.58 1020.51 1020.35 1020.08 1019.80 1019.54 1019.27 1019.11 1018.91 1018.67 1018.57 1018.20 1018.04 1017.91 1017.61 1017.42 1017.24 1017.02 1016.70 1016.49 1016.11 1015.93 1015.30 1014.62 1014.19 1013.93 1013.69 1013.48 1013.61 1013.82 1013.85 1013.93 1014.21 1014.79 1015.30 1015.71 1016.09 1016.53 1016.98 1017.41 1017.64 1017.79 1017.84
1020.33 1020.06 1019.77 1019.63 1019.44 1019.22 1018.96 1018.74 1018.47 1018.18 1018.02 1017.79 1017.54 1017.44 1017.23 1017.03 1016.79 1016.66 1016.57 1016.21 1015.83 1015.61 1015.14 1014.85 1014.45 1013.91 1013.66 1013.46 1013.25 1013.31 1013.27 1013.38 1013.76 1014.23 1014.63 1015.22 1015.64 1016.10 1016.54 1016.93 1017.20 1017.38 1017.41
1019.80 1019.59 1019.30 1019.14 1018.96 1018.74 1018.44 1018.25 1017.99 1017.63 1017.47 1017.26 1016.95 1016.77 1016.37 1016.47 1016.46 1016.34 1016.10 1015.92 1015.64 1015.35 1015.09 1014.46 1014.10 1013.66 1013.32 1013.13 1012.95 1013.02 1013.03 1013.01 1013.29 1013.50 1014.10 1014.70 1015.11 1015.60 1016.03 1016.42 1016.74 1016.97 1017.06
1019.60 1019.24 1018.89 1018.70 1018.53 1018.20 1017.91 1017.60 1017.38 1017.07 1016.80 1016.60 1016.45 1016.30 1016.03 1015.79 1015.63 1015.78 1015.82 1015.55 1015.14 1014.94 1014.64 1014.20 1013.77 1013.54 1012.94 1012.58 1012.43 1012.59 1012.69 1012.63 1012.67 1012.88 1013.57 1014.14 1014.62 1015.13 1015.54 1015.93 1016.29 1016.56 1016.70
1019.39 1018.94 1018.52 1018.20 1018.05 1017.81 1017.51 1017.12 1016.74 1016.51 1016.23 1016.06 1015.90 1015.72 1015.52 1015.30 1014.99 1014.93 1015.04 1015.03 1014.79 1014.49 1014.11 1013.88 1013.53 1013.12 1012.81 1012.07 1012.21 1012.09 1012.45 1012.23 1012.31 1012.62 1013.32 1013.75 1014.26 1014.66 1015.05 1015.43 1015.74 1016.06 1016.29
1019.18 1018.72 1018.27 1017.93 1017.60 1017.40 1016.92 1016.54 1016.26 1015.81 1015.66 1015.48 1015.11 1014.83 1014.57 1014.42 1014.30 1014.19 1014.25 1014.29 1014.21 1013.83 1013.49 1013.25 1013.18 1012.78 1012.16 1011.68 1011.61 1011.22 1011.63 1011.74 1012.09 1012.49 1013.27 1013.77 1014.20 1014.58 1014.73 1014.91 1015.15 1015.44 1015.74
1019.05 1018.62 1018.05 1017.61 1017.29 1016.81 1016.39 1016.10 1015.79 1015.42 1015.25 1014.87 1014.39 1013.99 1013.73 1013.48 1013.24 1013.23 1013.20 1013.39 1013.47 1013.34 1012.71 1012.72 1012.46 1011.97 1011.26 1010.85 1011.17 1010.55 1011.04 1011.42 1012.62 1012.36 1013.05 1013.58 1013.91 1014.08 1014.16 1014.40 1014.49 1014.85 1015.17
1018.93 1018.49 1017.89 1017.37 1016.89 1016.38 1016.11 1015.76 1015.29 1014.94 1014.67 1014.30 1013.82 1013.37 1013.06 1012.71 1012.67 1012.66 1012.57 1012.56 1012.47 1012.45 1012.38 1012.28 1011.90 1011.25 1010.30 1009.77 1010.44 1009.98 1009.81 1010.63 1011.61 1012.03 1012.62 1013.40 1013.60 1013.71 1013.74 1013.88 1014.12 1014.41 1014.73
1018.91 1018.46 1018.05 1017.41 1016.74 1016.21 1015.77 1015.34 1014.87 1014.43 1014.04 1013.58 1013.09 1012.75 1012.58 1012.41 1012.13 1012.09 1012.07 1011.81 1011.66 1011.57 1011.48 1011.52 1011.20 1010.34 1008.50 1008.26 1009.52 1008.63 1009.00 1010.45 1011.42 1011.86 1012.23 1013.03 1013.16 1013.30 1013.47 1013.54 1013.71 1014.02 1014.33
1018.86 1018.46 1017.83 1017.27 1016.72 1016.16 1015.65 1015.04 1014.44 1013.87 1013.39 1012.89 1012.48 1012.27 1012.19 1012.09 1011.90 1011.70 1011.27 1011.26 1011.16 1010.82 1010.60 1010.20 1010.00 1009.62 1008.35 1008.03 1008.09 1008.26 1009.77 1010.85 1011.72 1011.97 1012.08 1012.45 1012.91 1013.15 1013.29 1013.41 1013.60 1013.95 1014.16
1018.91 1018.36 1017.69 1017.14 1016.55 1015.99 1015.27 1014.66 1014.00 1013.30 1012.64 1012.17 1011.98 1011.92 1011.92 1011.74 1011.56 1011.33 1011.24 1011.10 1010.66 1009.98 1009.53 1008.32 1008.23 1008.38 1007.90 1008.13 1008.51 1008.66 1009.72 1010.57 1011.25 1011.88 1011.90 1012.26 1012.60 1012.84 1013.31 1013.25 1013.38 1013.59 1013.79
Thickness
5541 5540 5540 5541 5539 5538 5538 5538 5539 5537 5538 5539 5539 5543 5546 5550 5553 5555 5557 5560 5563 5565 5568 5570 5572 5573 5575 5577 5580 5583 5587 5591 5596 5599 5605 5610 5615 5620 5623 5625 5626 5627 5628
5538 5535 5535 5536 5534 5532 5533 5533 5534 5534 5534 5534 5533 5532 5537 5541 5544 5546 5548 5551 5553 5557 5559 5562 5563 5565 5567 5569 5572 5575 5579 5583 5588 5593 5597 5601 5607 5613 5619 5626 5619 5624 5624
5532 5529 5529 5529 5529 5528 5527 5526 5527 5527 5527 5529 5530 5528 5528 5531 5535 5539 5541 5544 5545 5547 5550 5554 5555 5557 5560 5562 5565 5568 5570 5574 5578 5584 5588 5593 5598 5605 5611 5617 5620 5620 5621
5529 5527 5525 5526 5524 5521 5518 5516 5516 5519 5521 5521 5524 5527 5526 5525 5526 5528 5534 5535 5538 5539 5541 5543 5547 5550 5552 5556 5558 5561 5564 5566 5570 5575 5580 5585 5590 5596 5602 5611 5619 5610 5613
5524 5521 5519 5518 5518 5517 5515 5513 5512 5509 5511 5515 5515 5517 5518 5520 5522 5523 5524 5528 5529 5530 5535 5537 5538 5541 5543 5547 5551 5554 5558 5560 5564 5567 5572 5577 5583 5588 5594 5601 5605 5603 5608
5513 5511 5510 5511 5512 5510 5509 5509 5510 5508 5508 5508 5510 5512 5512 5513 5514 5514 5518 5520 5523 5524 5525 5527 5530 5534 5537 5538 5542 5546 5550 5554 5557 5560 5565 5570 5576 5580 5584 5590 5595 5600 5602
5504 5502 5499 5497 5496 5496 5496 5497 5501 5502 5503 5505 5499 5508 5505 5505 5507 5510 5511 5511 5513 5517 5519 5520 5521 5523 5527 5531 5534 5537 5541 5546 5549 5552 5556 5561 5566 5571 5575 5580 5585 5591 5596
5494 5492 5489 5488 5487 5486 5486 5486 5486 5489 5492 5494 5491 5487 5491 5496 5499 5504 5506 5504 5505 5507 5511 5514 5514 5515 5517 5520 5525 5529 5533 5538 5541 5544 5547 5551 5556 5562 5568 5573 5577 5583 5589
5484 5481 5480 5478 5476 5476 5475 5474 5473 5473 5474 5480 5479 5478 5480 5486 5490 5492 5494 5500 5500 5499 5502 5505 5506 5508 5510 5513 5516 5520 5525 5528 5532 5536 5540 5543 5548 5552 5558 5565 5570 5575 5581
5474 5472 5469 5467 5465 5463 5461 5461 5461 5459 5458 5459 5461 5463 5464 5467 5472 5477 5481 5483 5485 5488 5492 5496 5499 5501 5504 5506 5508 5511 5516 5519 5522 5527 5532 5535 5540 5543 5548 5555 5561 5568 5575
5466 5463 5460 5457 5453 5450 5447 5445 5444 5443 5443 5444 5444 5443 5443 5447 5454 5458 5464 5468 5469 5474 5479 5484 5489 5494 5497 5499 5500 5503 5508 5512 5514 5516 5522 5527 5531 5535 5539 5545 5552 5560 5567
5458 5454 5450 5446 5442 5439 5435 5432 5430 5426 5424 5424 5425 5427 5427 5428 5435 5438 5445 5450 5457 5464 5467 5473 5476 5481 5489 5492 5495 5497 5500 5504 5507 5509 5513 5519 5524 5528 5531 5536 5544 5552 5559
5448 5444 5438 5433 5429 5425 5422 5419 5415 5411 5408 5405 5404 5404 5406 5409 5410 5413 5417 5423 5437 5446 5451 5459 5465 5469 5476 5482 5487 5490 5493 5498 5500 5503 5507 5513 5518 5521 5524 5528 5535 5543 5552
5438 5434 5429 5424 5419 5414 5409 5404 5398 5394 5390 5387 5386 5382 5383 5386 5389 5391 5395 5400 5409 5421 5431 5448 5452 5458 5463 5470 5478 5482 5485 5491 5494 5497 5501 5506 5511 5514 5518 5521 5526 5534 5541
5428 5423 5417 5411 5406 5401 5395 5388 5382 5376 5371 5367 5365 5363 5361 5361 5363 5366 5368 5376 5382 5393 5410 5422 5430 5442 5449 5457 5468 5472 5478 5484 5488 5490 5495 5499 5503 5508 5511 5515 5519 5525 5532
5419 5411 5405 5399 5393 5386 5379 5371 5363 5356 5350 5346 5341 5337 5336 5337 5338 5339 5343 5349 5358 5365 5382 5402 5411 5422 5430 5443 5455 5463 5471 5477 5482 5484 5488 5491 5495 5500 5505 5508 5514 5519 5525
5409 5402 5395 5387 5379 5370 5362 5353 5344 5336 5329 5324 5319 5316 5315 5314 5316 5318 5320 5328 5337 5345 5360 5379 5392 5404 5414 5425 5440 5451 5460 5469 5475 5479 5482 5484 5488 5492 5498 5502 5507 5513 5519
5401 5393 5385 5375 5366 5356 5346 5336 5328 5321 5314 5308 5303 5299 5300 5295 5296 5299 5303 5309 5316 5326 5337 5362 5376 5390 5402 5414 5427 5437 5449 5458 5467 5473 5476 5478 5482 5485 5491 5496 5501 5507 5513
5392 5383 5375 5365 5353 5342 5333 5323 5314 5307 5300 5294 5287 5283 5282 5281 5281 5281 5284 5292 5302 5310 5322 5343 5360 5373 5390 5404 5417 5426 5438 5450 5459 5466 5470 5473 5476 5479 5484 5490 5495 5501 5507
5382 5374 5366 5355 5343 5332 5322 5313 5304 5294 5288 5281 5275 5270 5268 5267 5268 5268 5270 5276 5285 5295 5311 5326 5343 5358 5374 5396 5405 5418 5427 5442 5451 5459 5462 5466 5470 5474 5479 5485 5491 5496 5502
5375 5367 5358 5345 5336 5325 5316 5306 5294 5286 5277 5270 5266 5263 5261 5259 5258 5259 5260 5264 5271 5285 5301 5317 5330 5345 5365 5383 5398 5418 5427 5437 5443 5450 5451 5458 5463 5467 5474 5481 5488 5494 5499
5369 5359 5349 5340 5330 5321 5311 5299 5287 5278 5268 5263 5260 5257 5256 5255 5256 5257 5259 5260 5265 5274 5292 5307 5324 5342 5364 5380 5393 5415 5423 5428 5432 5446 5446 5449 5456 5463 5470 5478 5485 5490 5496
5364 5354 5344 5336 5327 5318 5306 5294 5285 5274 5266 5259 5256 5253 5252 5253 5252 5253 5256 5261 5268 5275 5284 5300 5319 5341 5366 5386 5394 5412 5424 5429 5432 5436 5440 5443 5451 5459 5466 5474 5480 5486 5492
5359 5350 5338 5331 5324 5315 5305 5294 5285 5275 5268 5262 5257 5254 5251 5249 5250 5251 5255 5265 5274 5284 5294 5304 5323 5347 5381 5397 5398 5420 5429 5424 5424 5431 5437 5439 5447 5454 5461 5468 5475 5481 5487
5357 5347 5338 5330 5322 5314 5305 5296 5288 5280 5272 5265 5260 5255 5252 5250 5249 5252 5265 5275 5286 5297 5310 5324 5339 5356 5380 5395 5408 5416 5413 5416 5418 5425 5431 5438 5442 5448 5456 5463 5470 5476 5482
5354 5347 5338 5330 5323 5316 5309 5300 5293 5286 5279 5273 5265 5260 5257 5258 5260 5265 5274 5285 5299 5312 5325 5345 5357 5369 5386 5394 5402 5410 5412 5414 5415 5419 5429 5434 5437 5443 5450 5456 5464 5471 5476